Accueil
METAR-TAF:

METAR-TAF

Aéroports :

Landivisiau, France

Base aérienne

latitude: 48-31N, longitude: 004-09W, altitude: 106 m

Observation

Le bulletin a été fait il y a 19 minutes, à 03:30 UTC
Vent 3 kt de ouest
Température 8°C
Humidité 100%
Pression 1019 hPa
Visibilité: 2800 m
Quelques nuages à une hauteur de 100 ft
bancs de brouillard

METAR: LFRJ 230330Z AUTO 28003KT 2800 R08/1100N BCFG FEW001 08/08 Q1019

Heure: 05:49 (03:49 UTC)


TAF: absent

Observations et prévisions météorologiques de plus de 4000 aéroports (messages METAR et TAF).

Les stations disponibles sont représentées par des disques jaunes et rouges sur la carte.

Passer la souris dessus pour voir le nom de la station.

Cliquer dessus pour voir les observations et prévisions météorologiques.

Pour changer de carte: cliquez sur les boutons verts avec une croix noire pour zoomer, sur le bouton vert avec un tiret pour effectuer un zoom arrière, ou sur les flèches vertes pour les cartes adjacentes.


METAR-TAF: